<?xml version="1.0"?>
<gpx xmlns="http://www.topografix.com/GPX/1/1" xmlns:xsi="http://www.w3.org/2001/XMLSchema-instance" version="1.1" creator="GPX RubyGem 1.0.0 -- http://dougfales.github.io/gpx/" xsi:schemaLocation="http://www.topografix.com/GPX/1/1 http://www.topografix.com/GPX/1/1/gpx.xsd">
  <metadata>
    <name/>
    <time>2026-05-10T22:56:16+00:00</time>
    <bound minlat="90.0" minlon="180.0" maxlat="-90.0" maxlon="-180.0"/>
  </metadata>
  <trk>
    <name/>
    <trkseg>
      <trkpt lat="50.865548" lon="4.250517">
        <time>1970-01-01T00:00:00+00:00</time>
        <ele>39.0</ele>
      </trkpt>
      <trkpt lat="50.865521" lon="4.250258">
        <time>1970-01-01T00:00:00+00:00</time>
        <ele>39.0</ele>
      </trkpt>
      <trkpt lat="50.865328" lon="4.250064">
        <time>1970-01-01T00:00:00+00:00</time>
        <ele>37.0</ele>
      </trkpt>
      <trkpt lat="50.865156" lon="4.249906">
        <time>1970-01-01T00:00:00+00:00</time>
        <ele>37.0</ele>
      </trkpt>
      <trkpt lat="50.86474" lon="4.249935">
        <time>1970-01-01T00:00:00+00:00</time>
        <ele>38.0</ele>
      </trkpt>
      <trkpt lat="50.864609" lon="4.24999">
        <time>1970-01-01T00:00:00+00:00</time>
        <ele>38.0</ele>
      </trkpt>
      <trkpt lat="50.864537" lon="4.25002">
        <time>1970-01-01T00:00:00+00:00</time>
        <ele>38.0</ele>
      </trkpt>
      <trkpt lat="50.864379" lon="4.249971">
        <time>1970-01-01T00:00:00+00:00</time>
        <ele>39.0</ele>
      </trkpt>
      <trkpt lat="50.864048" lon="4.250134">
        <time>1970-01-01T00:00:00+00:00</time>
        <ele>41.0</ele>
      </trkpt>
      <trkpt lat="50.864003" lon="4.250292">
        <time>1970-01-01T00:00:00+00:00</time>
        <ele>42.0</ele>
      </trkpt>
      <trkpt lat="50.863757" lon="4.25042">
        <time>1970-01-01T00:00:00+00:00</time>
        <ele>42.0</ele>
      </trkpt>
      <trkpt lat="50.863552" lon="4.250497">
        <time>1970-01-01T00:00:00+00:00</time>
        <ele>41.0</ele>
      </trkpt>
      <trkpt lat="50.863487" lon="4.250515">
        <time>1970-01-01T00:00:00+00:00</time>
        <ele>41.0</ele>
      </trkpt>
      <trkpt lat="50.863278" lon="4.250523">
        <time>1970-01-01T00:00:00+00:00</time>
        <ele>41.0</ele>
      </trkpt>
      <trkpt lat="50.863036" lon="4.250677">
        <time>1970-01-01T00:00:00+00:00</time>
        <ele>42.0</ele>
      </trkpt>
      <trkpt lat="50.862954" lon="4.250852">
        <time>1970-01-01T00:00:00+00:00</time>
        <ele>42.0</ele>
      </trkpt>
      <trkpt lat="50.862916" lon="4.250815">
        <time>1970-01-01T00:00:00+00:00</time>
        <ele>42.0</ele>
      </trkpt>
      <trkpt lat="50.862653" lon="4.25072">
        <time>1970-01-01T00:00:00+00:00</time>
        <ele>41.0</ele>
      </trkpt>
      <trkpt lat="50.862516" lon="4.250913">
        <time>1970-01-01T00:00:00+00:00</time>
        <ele>41.0</ele>
      </trkpt>
      <trkpt lat="50.862505" lon="4.250917">
        <time>1970-01-01T00:00:00+00:00</time>
        <ele>41.0</ele>
      </trkpt>
      <trkpt lat="50.862323" lon="4.251256">
        <time>1970-01-01T00:00:00+00:00</time>
        <ele>41.0</ele>
      </trkpt>
      <trkpt lat="50.862211" lon="4.251233">
        <time>1970-01-01T00:00:00+00:00</time>
        <ele>41.0</ele>
      </trkpt>
      <trkpt lat="50.862108" lon="4.251093">
        <time>1970-01-01T00:00:00+00:00</time>
        <ele>41.0</ele>
      </trkpt>
      <trkpt lat="50.862082" lon="4.251154">
        <time>1970-01-01T00:00:00+00:00</time>
        <ele>41.0</ele>
      </trkpt>
      <trkpt lat="50.862003" lon="4.251304">
        <time>1970-01-01T00:00:00+00:00</time>
        <ele>41.0</ele>
      </trkpt>
      <trkpt lat="50.861725" lon="4.251816">
        <time>1970-01-01T00:00:00+00:00</time>
        <ele>40.0</ele>
      </trkpt>
      <trkpt lat="50.861354" lon="4.251996">
        <time>1970-01-01T00:00:00+00:00</time>
        <ele>39.0</ele>
      </trkpt>
      <trkpt lat="50.860998" lon="4.252033">
        <time>1970-01-01T00:00:00+00:00</time>
        <ele>39.0</ele>
      </trkpt>
      <trkpt lat="50.860944" lon="4.251993">
        <time>1970-01-01T00:00:00+00:00</time>
        <ele>39.0</ele>
      </trkpt>
      <trkpt lat="50.86077" lon="4.251981">
        <time>1970-01-01T00:00:00+00:00</time>
        <ele>39.0</ele>
      </trkpt>
      <trkpt lat="50.860649" lon="4.252802">
        <time>1970-01-01T00:00:00+00:00</time>
        <ele>39.0</ele>
      </trkpt>
      <trkpt lat="50.859788" lon="4.252836">
        <time>1970-01-01T00:00:00+00:00</time>
        <ele>39.0</ele>
      </trkpt>
      <trkpt lat="50.859451" lon="4.253229">
        <time>1970-01-01T00:00:00+00:00</time>
        <ele>41.0</ele>
      </trkpt>
      <trkpt lat="50.859315" lon="4.253544">
        <time>1970-01-01T00:00:00+00:00</time>
        <ele>42.0</ele>
      </trkpt>
      <trkpt lat="50.859099" lon="4.253803">
        <time>1970-01-01T00:00:00+00:00</time>
        <ele>44.0</ele>
      </trkpt>
      <trkpt lat="50.85874" lon="4.25404">
        <time>1970-01-01T00:00:00+00:00</time>
        <ele>47.0</ele>
      </trkpt>
      <trkpt lat="50.858679" lon="4.254222">
        <time>1970-01-01T00:00:00+00:00</time>
        <ele>48.0</ele>
      </trkpt>
      <trkpt lat="50.858423" lon="4.253954">
        <time>1970-01-01T00:00:00+00:00</time>
        <ele>46.0</ele>
      </trkpt>
      <trkpt lat="50.858228" lon="4.253717">
        <time>1970-01-01T00:00:00+00:00</time>
        <ele>44.0</ele>
      </trkpt>
      <trkpt lat="50.857997" lon="4.253398">
        <time>1970-01-01T00:00:00+00:00</time>
        <ele>42.0</ele>
      </trkpt>
      <trkpt lat="50.857989" lon="4.253366">
        <time>1970-01-01T00:00:00+00:00</time>
        <ele>42.0</ele>
      </trkpt>
      <trkpt lat="50.857858" lon="4.253258">
        <time>1970-01-01T00:00:00+00:00</time>
        <ele>42.0</ele>
      </trkpt>
      <trkpt lat="50.85776" lon="4.25338">
        <time>1970-01-01T00:00:00+00:00</time>
        <ele>44.0</ele>
      </trkpt>
      <trkpt lat="50.857675" lon="4.253431">
        <time>1970-01-01T00:00:00+00:00</time>
        <ele>45.0</ele>
      </trkpt>
      <trkpt lat="50.857537" lon="4.253393">
        <time>1970-01-01T00:00:00+00:00</time>
        <ele>47.0</ele>
      </trkpt>
      <trkpt lat="50.85741" lon="4.253302">
        <time>1970-01-01T00:00:00+00:00</time>
        <ele>49.0</ele>
      </trkpt>
      <trkpt lat="50.85729" lon="4.253265">
        <time>1970-01-01T00:00:00+00:00</time>
        <ele>50.0</ele>
      </trkpt>
      <trkpt lat="50.85692" lon="4.253247">
        <time>1970-01-01T00:00:00+00:00</time>
        <ele>50.0</ele>
      </trkpt>
      <trkpt lat="50.856676" lon="4.253287">
        <time>1970-01-01T00:00:00+00:00</time>
        <ele>47.0</ele>
      </trkpt>
      <trkpt lat="50.856512" lon="4.253401">
        <time>1970-01-01T00:00:00+00:00</time>
        <ele>45.0</ele>
      </trkpt>
      <trkpt lat="50.856386" lon="4.253449">
        <time>1970-01-01T00:00:00+00:00</time>
        <ele>44.0</ele>
      </trkpt>
      <trkpt lat="50.85591" lon="4.253489">
        <time>1970-01-01T00:00:00+00:00</time>
        <ele>43.0</ele>
      </trkpt>
      <trkpt lat="50.85591" lon="4.253489">
        <time>1970-01-01T00:00:00+00:00</time>
        <ele>43.0</ele>
      </trkpt>
      <trkpt lat="50.856386" lon="4.253449">
        <time>1970-01-01T00:00:00+00:00</time>
        <ele>44.0</ele>
      </trkpt>
      <trkpt lat="50.856512" lon="4.253401">
        <time>1970-01-01T00:00:00+00:00</time>
        <ele>45.0</ele>
      </trkpt>
      <trkpt lat="50.856676" lon="4.253287">
        <time>1970-01-01T00:00:00+00:00</time>
        <ele>47.0</ele>
      </trkpt>
      <trkpt lat="50.85692" lon="4.253247">
        <time>1970-01-01T00:00:00+00:00</time>
        <ele>50.0</ele>
      </trkpt>
      <trkpt lat="50.85729" lon="4.253265">
        <time>1970-01-01T00:00:00+00:00</time>
        <ele>50.0</ele>
      </trkpt>
      <trkpt lat="50.85741" lon="4.253302">
        <time>1970-01-01T00:00:00+00:00</time>
        <ele>49.0</ele>
      </trkpt>
      <trkpt lat="50.857537" lon="4.253393">
        <time>1970-01-01T00:00:00+00:00</time>
        <ele>47.0</ele>
      </trkpt>
      <trkpt lat="50.857675" lon="4.253431">
        <time>1970-01-01T00:00:00+00:00</time>
        <ele>45.0</ele>
      </trkpt>
      <trkpt lat="50.85776" lon="4.25338">
        <time>1970-01-01T00:00:00+00:00</time>
        <ele>44.0</ele>
      </trkpt>
      <trkpt lat="50.857858" lon="4.253258">
        <time>1970-01-01T00:00:00+00:00</time>
        <ele>42.0</ele>
      </trkpt>
      <trkpt lat="50.857989" lon="4.253366">
        <time>1970-01-01T00:00:00+00:00</time>
        <ele>42.0</ele>
      </trkpt>
      <trkpt lat="50.857997" lon="4.253398">
        <time>1970-01-01T00:00:00+00:00</time>
        <ele>42.0</ele>
      </trkpt>
      <trkpt lat="50.858228" lon="4.253717">
        <time>1970-01-01T00:00:00+00:00</time>
        <ele>44.0</ele>
      </trkpt>
      <trkpt lat="50.858423" lon="4.253954">
        <time>1970-01-01T00:00:00+00:00</time>
        <ele>46.0</ele>
      </trkpt>
      <trkpt lat="50.858679" lon="4.254222">
        <time>1970-01-01T00:00:00+00:00</time>
        <ele>48.0</ele>
      </trkpt>
      <trkpt lat="50.85874" lon="4.25404">
        <time>1970-01-01T00:00:00+00:00</time>
        <ele>47.0</ele>
      </trkpt>
      <trkpt lat="50.859099" lon="4.253803">
        <time>1970-01-01T00:00:00+00:00</time>
        <ele>44.0</ele>
      </trkpt>
      <trkpt lat="50.859315" lon="4.253544">
        <time>1970-01-01T00:00:00+00:00</time>
        <ele>42.0</ele>
      </trkpt>
      <trkpt lat="50.859451" lon="4.253229">
        <time>1970-01-01T00:00:00+00:00</time>
        <ele>41.0</ele>
      </trkpt>
      <trkpt lat="50.859788" lon="4.252836">
        <time>1970-01-01T00:00:00+00:00</time>
        <ele>39.0</ele>
      </trkpt>
      <trkpt lat="50.860649" lon="4.252802">
        <time>1970-01-01T00:00:00+00:00</time>
        <ele>39.0</ele>
      </trkpt>
      <trkpt lat="50.86077" lon="4.251981">
        <time>1970-01-01T00:00:00+00:00</time>
        <ele>39.0</ele>
      </trkpt>
      <trkpt lat="50.860944" lon="4.251993">
        <time>1970-01-01T00:00:00+00:00</time>
        <ele>39.0</ele>
      </trkpt>
      <trkpt lat="50.860998" lon="4.252033">
        <time>1970-01-01T00:00:00+00:00</time>
        <ele>39.0</ele>
      </trkpt>
      <trkpt lat="50.861354" lon="4.251996">
        <time>1970-01-01T00:00:00+00:00</time>
        <ele>39.0</ele>
      </trkpt>
      <trkpt lat="50.861725" lon="4.251816">
        <time>1970-01-01T00:00:00+00:00</time>
        <ele>40.0</ele>
      </trkpt>
      <trkpt lat="50.862003" lon="4.251304">
        <time>1970-01-01T00:00:00+00:00</time>
        <ele>41.0</ele>
      </trkpt>
      <trkpt lat="50.862082" lon="4.251154">
        <time>1970-01-01T00:00:00+00:00</time>
        <ele>41.0</ele>
      </trkpt>
      <trkpt lat="50.862108" lon="4.251093">
        <time>1970-01-01T00:00:00+00:00</time>
        <ele>41.0</ele>
      </trkpt>
      <trkpt lat="50.862211" lon="4.251233">
        <time>1970-01-01T00:00:00+00:00</time>
        <ele>41.0</ele>
      </trkpt>
      <trkpt lat="50.862323" lon="4.251256">
        <time>1970-01-01T00:00:00+00:00</time>
        <ele>41.0</ele>
      </trkpt>
      <trkpt lat="50.862505" lon="4.250917">
        <time>1970-01-01T00:00:00+00:00</time>
        <ele>41.0</ele>
      </trkpt>
      <trkpt lat="50.862516" lon="4.250913">
        <time>1970-01-01T00:00:00+00:00</time>
        <ele>41.0</ele>
      </trkpt>
      <trkpt lat="50.862653" lon="4.25072">
        <time>1970-01-01T00:00:00+00:00</time>
        <ele>41.0</ele>
      </trkpt>
      <trkpt lat="50.862916" lon="4.250815">
        <time>1970-01-01T00:00:00+00:00</time>
        <ele>42.0</ele>
      </trkpt>
      <trkpt lat="50.862954" lon="4.250852">
        <time>1970-01-01T00:00:00+00:00</time>
        <ele>42.0</ele>
      </trkpt>
      <trkpt lat="50.863036" lon="4.250677">
        <time>1970-01-01T00:00:00+00:00</time>
        <ele>42.0</ele>
      </trkpt>
      <trkpt lat="50.863278" lon="4.250523">
        <time>1970-01-01T00:00:00+00:00</time>
        <ele>41.0</ele>
      </trkpt>
      <trkpt lat="50.863487" lon="4.250515">
        <time>1970-01-01T00:00:00+00:00</time>
        <ele>41.0</ele>
      </trkpt>
      <trkpt lat="50.863552" lon="4.250497">
        <time>1970-01-01T00:00:00+00:00</time>
        <ele>41.0</ele>
      </trkpt>
      <trkpt lat="50.863757" lon="4.25042">
        <time>1970-01-01T00:00:00+00:00</time>
        <ele>42.0</ele>
      </trkpt>
      <trkpt lat="50.864003" lon="4.250292">
        <time>1970-01-01T00:00:00+00:00</time>
        <ele>42.0</ele>
      </trkpt>
      <trkpt lat="50.864048" lon="4.250134">
        <time>1970-01-01T00:00:00+00:00</time>
        <ele>41.0</ele>
      </trkpt>
      <trkpt lat="50.864379" lon="4.249971">
        <time>1970-01-01T00:00:00+00:00</time>
        <ele>39.0</ele>
      </trkpt>
      <trkpt lat="50.864537" lon="4.25002">
        <time>1970-01-01T00:00:00+00:00</time>
        <ele>38.0</ele>
      </trkpt>
      <trkpt lat="50.864609" lon="4.24999">
        <time>1970-01-01T00:00:00+00:00</time>
        <ele>38.0</ele>
      </trkpt>
      <trkpt lat="50.86474" lon="4.249935">
        <time>1970-01-01T00:00:00+00:00</time>
        <ele>38.0</ele>
      </trkpt>
      <trkpt lat="50.865156" lon="4.249906">
        <time>1970-01-01T00:00:00+00:00</time>
        <ele>37.0</ele>
      </trkpt>
      <trkpt lat="50.865328" lon="4.250064">
        <time>1970-01-01T00:00:00+00:00</time>
        <ele>37.0</ele>
      </trkpt>
      <trkpt lat="50.865521" lon="4.250258">
        <time>1970-01-01T00:00:00+00:00</time>
        <ele>39.0</ele>
      </trkpt>
      <trkpt lat="50.865548" lon="4.250517">
        <time>1970-01-01T00:00:00+00:00</time>
        <ele>39.0</ele>
      </trkpt>
    </trkseg>
  </trk>
</gpx>
